User: anonymous   Login
Location: Unspecified
(0.0000°N, 0.0000°E)
Time: 04:12:51
(UTC+00:00)
Language:

AUBIESAT-1 - Orbit

View from above orbital plane
View from above orbital plane
View from above satellite
View from above satellite

Ground track
Ground track

The orbit data is extracted from the following two-line orbital elements,

1 37854U 11061E   15027.35798441  .00011318  00000-0  68842-3 0   257
2 37854 101.7107 172.2724 0200186 122.4005 293.0170 14.95515634176157
Epoch (UTC): 27 January 2015 08:35:29
Eccentricity: 0.0200186
inclination: 101.7107°
perigee height: 441 km
apogee height: 720 km
right ascension of ascending node: 172.2724°
argument of perigee: 122.4005°
revolutions per day: 14.95515634
mean anomaly at epoch: 293.0170°
orbit number at epoch: 17615

The dashed part of the orbit path shows where the satellite is in the earth's shadow,  

DLR